W4NRG-1 Weather Reports


Display with metric or nautical units.
time (UTC)temp
F
wind
direction
speed
MPH
gust
MPH
rain 1hr
in
rain 24hr
in
rain mn
in
humidity
%
barometer
mb
20260505022321 0 0.0 0.0 0.00 0.00 0.00 1012.8
20260505021818 0 0.0 0.0 0.00 0.00 0.00 1012.8
20260505021315 0 0.0 0.0 0.00 0.00 0.00 1012.9
20260505020811 0 0.0 0.0 0.00 0.00 0.00 1012.9
20260505020307 0 0.0 0.0 0.00 0.00 0.00 1012.8
20260505015804 0 0.0 0.0 0.00 0.00 0.00 1012.8
20260505015301 0 0.0 0.0 0.00 0.00 0.00 1012.8
20260505014758 0 0.0 0.0 0.00 0.00 0.00 1013.1
20260505014255 0 0.0 0.0 0.00 0.00 0.00 1012.8
20260505013751 0 0.0 0.0 0.00 0.00 0.00 1012.8
20260505013249 0 0.0 0.0 0.00 0.00 0.00 1012.8
20260505012747 0 0.0 0.0 0.00 0.00 0.00 1012.6
20260505012244 0 0.0 0.0 0.00 0.00 0.00 1012.7
20260505011739 0 0.0 0.0 0.00 0.00 0.00 1012.6
20260505011237 0 0.0 0.0 0.00 0.00 0.00 1012.6
20260505010732 0 0.0 0.0 0.00 0.00 0.00 1012.4
20260505010229 0 0.0 0.0 0.00 0.00 0.00 1012.5
20260505005725 0 0.0 0.0 0.00 0.00 0.00 1012.6
20260505005222 0 0.0 0.0 0.00 0.00 0.00 1012.2
20260505004720 0 0.0 0.0 0.00 0.00 0.00 1012.4
20260505004216 0 0.0 0.0 0.00 0.00 0.00 1012.3
20260505003713 0 0.0 0.0 0.00 0.00 0.00 1012.3
20260505003211 0 0.0 0.0 0.00 0.00 0.00 1012.3
20260505002707 0 0.0 0.0 0.00 0.00 0.00 1012.4
20260505002205 0 0.0 0.0 0.00 0.00 0.00 1012.4
20260505001702 0 0.0 0.0 0.00 0.00 0.00 1012.6
20260505001159 0 0.0 0.0 0.00 0.00 0.00 1012.1
20260505000656 0 0.0 0.0 0.00 0.00 0.00 1012.3
20260505000154 69 320 0.0 0.0 0.00 0.00 0.00 46 1012.4
20260504235650 69 320 0.0 0.0 0.00 0.00 0.00 46 1012.3
20260504235147 0 0.0 0.0 0.00 0.00 0.00 1012.1
20260504234644 0 0.0 0.0 0.00 0.00 0.00 1011.9
20260504234141 0 0.0 0.0 0.00 0.00 0.00 1012.0
20260504233637 0 0.0 0.0 0.00 0.00 0.00 1011.8
20260504233133 0 0.0 0.0 0.00 0.00 0.00 1012.0
20260504232631 73 104 1.0 1.0 0.00 0.00 0.00 38 1012.2
20260504232128 73 104 1.0 1.0 0.00 0.00 0.00 38 1012.1
20260504231624 73 339 2.0 3.0 0.00 0.00 0.00 39 1012.0
20260504231121 73 354 0.0 1.0 0.00 0.00 0.00 38 1012.0
20260504230616 73 77 3.0 3.0 0.00 0.00 0.00 37 1011.8
20260504230116 74 63 2.0 3.0 0.00 0.00 0.00 36 1012.1
20260504225613 74 325 3.0 4.0 0.00 0.00 0.00 36 1012.0
20260504225110 75 37 0.0 2.0 0.00 0.00 0.00 36 1012.1
20260504224606 76 4 4.0 4.0 0.00 0.00 0.00 34 1012.0
20260504224103 76 133 1.0 6.0 0.00 0.00 0.00 34 1012.3
20260504223600 76 310 3.0 3.0 0.00 0.00 0.00 33 1012.0
20260504223056 76 68 1.0 3.0 0.00 0.00 0.00 33 1011.9
20260504222553 76 42 2.0 6.0 0.00 0.00 0.00 33 1011.9
20260504222050 76 44 3.0 4.0 0.00 0.00 0.00 33 1012.1
20260504221548 76 294 4.0 6.0 0.00 0.00 0.00 33 1012.1
20260504221044 76 22 1.0 9.0 0.00 0.00 0.00 33 1012.2
20260504220541 76 52 2.0 6.0 0.00 0.00 0.00 33 1012.2
20260504220038 76 74 2.0 4.0 0.00 0.00 0.00 34 1012.2
20260504215534 76 52 1.0 2.0 0.00 0.00 0.00 34 1012.2
20260504215032 76 301 5.0 7.0 0.00 0.00 0.00 33 1012.1
20260504214527 76 86 1.0 2.0 0.00 0.00 0.00 32 1012.4
20260504214024 76 88 2.0 4.0 0.00 0.00 0.00 33 1012.3
20260504213521 77 101 4.0 4.0 0.00 0.00 0.00 32 1012.3
20260504213018 78 12 7.0 10.0 0.00 0.00 0.00 31 1012.3
20260504212513 78 2 1.0 4.0 0.00 0.00 0.00 34 1011.8
20260504212011 77 44 2.0 3.0 0.00 0.00 0.00 34 1012.1
20260504211508 77 135 1.0 2.0 0.00 0.00 0.00 35 1012.2
20260504211005 76 28 1.0 3.0 0.00 0.00 0.00 34 1012.2
20260504210502 76 65 1.0 3.0 0.00 0.00 0.00 34 1012.1
20260504205959 76 337 1.0 2.0 0.00 0.00 0.00 34 1012.2
20260504205456 76 132 2.0 4.0 0.00 0.00 0.00 33 1012.0
20260504204954 76 113 1.0 2.0 0.00 0.00 0.00 32 1012.1
20260504204452 77 268 1.0 6.0 0.00 0.00 0.00 33 1012.1
20260504203951 78 59 4.0 10.0 0.00 0.00 0.00 30 1012.0
20260504203449 79 317 5.0 8.0 0.00 0.00 0.00 30 1011.8
20260504202944 79 18 2.0 3.0 0.00 0.00 0.00 29 1011.9
20260504202441 79 96 3.0 7.0 0.00 0.00 0.00 30 1011.9
20260504201938 78 307 2.0 4.0 0.00 0.00 0.00 30 1012.2
20260504201435 78 16 4.0 6.0 0.00 0.00 0.00 29 1012.3
20260504200933 78 51 1.0 8.0 0.00 0.00 0.00 31 1012.5
20260504200429 78 6 3.0 6.0 0.00 0.00 0.00 29 1012.4
20260504195926 79 63 2.0 6.0 0.00 0.00 0.00 30 1012.8
20260504195422 78 41 2.0 3.0 0.00 0.00 0.00 30 1012.5
20260504194918 78 317 3.0 3.0 0.00 0.00 0.00 31 1012.7
20260504194414 78 305 5.0 8.0 0.00 0.00 0.00 30 1012.7
20260504193911 78 42 2.0 7.0 0.00 0.00 0.00 33 1012.6
20260504193408 78 82 4.0 4.0 0.00 0.00 0.00 32 1012.7
20260504192907 78 98 2.0 4.0 0.00 0.00 0.00 30 1013.2
20260504192404 0 0.0 0.0 0.00 0.00 0.00 1013.1
20260504191902 0 0.0 0.0 0.00 0.00 0.00 1013.0
20260504191400 0 0.0 0.0 0.00 0.00 0.00 1013.2
20260504190855 0 0.0 0.0 0.00 0.00 0.00 1013.3
20260504190351 0 0.0 0.0 0.00 0.00 0.00 1013.3
20260504185848 0 0.0 0.0 0.00 0.00 0.00 1013.2
20260504185345 0 0.0 0.0 0.00 0.00 0.00 1013.3
20260504184841 0 0.0 0.0 0.00 0.00 0.00 1013.4
20260504184337 0 0.0 0.0 0.00 0.00 0.00 1013.5
20260504183833 0 0.0 0.0 0.00 0.00 0.00 1013.4
20260504183331 0 0.0 0.0 0.00 0.00 0.00 1013.8
20260504182828 0 0.0 0.0 0.00 0.00 0.00 1013.6
20260504182325 0 0.0 0.0 0.00 0.00 0.00 1013.7
20260504181822 0 0.0 0.0 0.00 0.00 0.00 1014.0
20260504181320 0 0.0 0.0 0.00 0.00 0.00 1013.7
20260504180819 0 0.0 0.0 0.00 0.00 0.00 1013.8
20260504180316 0 0.0 0.0 0.00 0.00 0.00 1014.1
20260504175814 0 0.0 0.0 0.00 0.00 0.00 1014.2
20260504175311 0 0.0 0.0 0.00 0.00 0.00 1013.9
20260504174809 0 0.0 0.0 0.00 0.00 0.00 1014.1
20260504174306 0 0.0 0.0 0.00 0.00 0.00 1014.3
20260504173803 0 0.0 0.0 0.00 0.00 0.00 1014.2
20260504173259 0 0.0 0.0 0.00 0.00 0.00 1014.2
20260504172756 0 0.0 0.0 0.00 0.00 0.00 1014.5
20260504172253 0 0.0 0.0 0.00 0.00 0.00 1014.5
20260504171749 0 0.0 0.0 0.00 0.00 0.00 1014.6
20260504171246 0 0.0 0.0 0.00 0.00 0.00 1014.4
20260504170743 0 0.0 0.0 0.00 0.00 0.00 1015.0
20260504170241 0 0.0 0.0 0.00 0.00 0.00 1014.7
20260504160159 71 0 2.0 3.0 0.00 0.00 0.00 38 1015.6
20260504151127 69 164 2.0 3.0 0.00 0.00 0.00 38 1015.6
20260504150624 69 107 2.0 2.0 0.00 0.00 0.00 45 1015.8
20260504150121 68 88 0.0 3.0 0.00 0.00 0.00 43 1015.8
20260504141049 0 0.0 0.0 0.00 0.00 0.00 1015.8
20260504140546 65 195 4.0 4.0 0.00 0.00 0.00 45 1015.8
20260504130510 58 337 2.0 3.0 0.00 0.00 0.00 57 1016.7
20260504110358 0 0.0 0.0 0.00 0.00 0.00 1017.0
20260504100315 0 0.0 0.0 0.00 0.00 0.00 1017.1
20260504081708 0 0.0 0.0 0.00 0.00 0.00 1017.4
20260504081205 0 0.0 0.0 0.00 0.00 0.00 1017.2
20260504080701 0 0.0 0.0 0.00 0.00 0.00 1017.2
20260504080157 0 0.0 0.0 0.00 0.00 0.00 1017.3
20260504070125 0 0.0 0.0 0.00 0.00 0.00 1017.8
20260504050514 0 0.0 0.0 0.00 0.00 0.00 1017.4
20260504050011 0 0.0 0.0 0.00 0.00 0.00 1017.5
20260504045508 0 0.0 0.0 0.00 0.00 0.00 1017.7
20260504045003 0 0.0 0.0 0.00 0.00 0.00 1017.8
20260504044501 0 0.0 0.0 0.00 0.00 0.00 1017.5
20260504043958 0 0.0 0.0 0.00 0.00 0.00 1017.6
20260504043455 0 0.0 0.0 0.00 0.00 0.00 1017.7
20260504042952 0 0.0 0.0 0.00 0.00 0.00 1017.7
20260504042449 0 0.0 0.0 0.00 0.00 0.00 1017.8
20260504041945 0 0.0 0.0 0.00 0.00 0.00 1017.6
20260504041441 0 0.0 0.0 0.00 0.00 0.00 1017.3
20260504040937 0 0.0 0.0 0.00 0.00 0.00 1017.5
20260504040436 0 0.0 0.0 0.00 0.00 0.00 1017.4
20260504035931 0 0.0 0.0 0.00 0.00 0.00 1017.6
20260504035429 0 0.0 0.0 0.00 0.00 0.00 1017.5
20260504034925 0 0.0 0.0 0.00 0.00 0.00 1017.4
20260504034423 0 0.0 0.0 0.00 0.00 0.00 1017.5
20260504033920 0 0.0 0.0 0.00 0.00 0.00 1017.3
20260504033418 0 0.0 0.0 0.00 0.00 0.00 1017.4
20260504032914 0 0.0 0.0 0.00 0.00 0.00 1017.2
20260504032411 0 0.0 0.0 0.00 0.00 0.00 1017.4
20260504031908 0 0.0 0.0 0.00 0.00 0.00 1017.3
20260504031405 0 0.0 0.0 0.00 0.00 0.00 1017.0
20260504030901 0 0.0 0.0 0.00 0.00 0.00 1017.2
20260504030359 0 0.0 0.0 0.00 0.00 0.00 1017.4
20260504025854 0 0.0 0.0 0.00 0.00 0.00 1017.2
20260504025352 0 0.0 0.0 0.00 0.00 0.00 1017.3
20260504024849 0 0.0 0.0 0.00 0.00 0.00 1017.1
20260504024345 0 0.0 0.0 0.00 0.00 0.00 1017.1
20260504023842 0 0.0 0.0 0.00 0.00 0.00 1017.1
20260504023339 0 0.0 0.0 0.00 0.00 0.00 1017.3
20260504022834 0 0.0 0.0 0.00 0.00 0.00 1017.4